Location: Hertford
(51.8000°N, 0.0667°W)
Time: 14:05:17
(UTC+00:00)

Cosmos 1844 - Pass Details

Date: 18 September 2020
Orbit: 824 x 866 km, 70.9° (Epoch: 27 October)

Event Time Altitude Azimuth Distance (km) Brightness Sun altitude
Rises 21:10:23 0° 218° (SW) 3,412 6.8 -26.6°
Reaches altitude 10° 21:12:51 10° 222° (SW) 2,473 6.1 -26.9°
Maximum altitude 21:18:30 66° 304° (NW) 920 4.0 -27.5°
Drops below altitude 10° 21:24:08 10° 27° (NNE) 2,459 6.3 -28.1°
Sets 21:26:35 0° 31° (NNE) 3,392 7.0 -28.4°
